Погода в Усть-Катуни

Россия / Алтайский край     52°25′07″N   85°03′29″E
темп.,
°C
ветер,
м/с
пор.,
м/с
влажн.,
%
обл.,
%
осадки,
мм/ч
давл.,
гПа
погр.,
м
12 мая, ср
ср1201:00+11ю115693 0.0 101312
04:00+9ю226147 0.0 101317
07:00+9ююз23719 0.0 101495
10:00+15зюз225318 0.0 1015745
13:00+19всв234021 0.0 10141940
16:00+16вюв3355100 0.9 10151113
19:00+15ююз4557100 1.0 1016563
22:00+12ю226756 0.1 101719
13 мая, чт
чт1301:00+10зюз227453 0.1 101721
04:00+9юз228132 0.0 101724
07:00+10ююз258023 0.5 1016140
10:00+16юз345358 0.1 1015774
13:00+19зюз3435100 0.1 10132823
16:00+16ююз6750100 0.1 10131379
19:00+15ююз2553100 0.2 1013396
22:00+11з3787100 0.4 1013249
14 мая, пт
пт1401:00+11ю2688100 1.8 1013375
04:00+10з3492100 0.4 1012302
07:00+9зюз6997100 4.9 1014490
10:00+9зсз61194100 8.8 1016784
13:00+9сз5994100 16.8 1018632
16:00+9з359298 4.7 1020235
19:00+12зюз457996 5.1 1022323
22:00+9зюз348992 0.3 102563
15 мая, сб
сб1501:00+7з229096 0.3 102517
04:00+6юз11895 0.0 102510
07:00+8юз118667 0.0 102752
10:00+12ю117085 0.0 1027414
13:00+16юв115126 0.0 1025959
16:00+18в014722 0.0 1023983
19:00+18ююв11545 0.0 1023629
22:00+13ю226743 0.0 102211
16 мая, вс
вс1601:00+12ю227224 0.0 102113
04:00+10ю33808 0.0 102040
07:00+11ююз23795 0.0 101995
10:00+18юз455786 0.0 1018470
13:00+22юз5643100 0.0 10161042
16:00+23зюз5744100 0.0 10151587
19:00+21юз510531 0.0 1013378
22:00+16зюз41173100 0.1 1013213